Simultaneous Nadir Overpasses (SNOs) Predictions

Prediction of SNOs between AQUA and NPP Satellite Orbit:

Table of predicted SNOs for the next 14.0 days since TLE Epoch: 12/26/2020
Index Date (AQUA) Time (AQUA) Lat,Lon (AQUA) SZA (AQUA ) Date (NPP) Time (NPP) Lat,Lon (NPP) SZA (NPP ) Distance(km) Time Diff (sec)
1 12/26/2020 14:05:16 -75.45, 26.10 59.41 12/26/2020 14:04:26 -75.44, 26.05 59.35 1.78 50
2 12/26/2020 14:54:21 76.46,-163.15 119.50 12/26/2020 14:54:48 76.45,-163.23 119.49 2.17 27
3 12/29/2020 06:21:38 -75.81, 143.03 59.86 12/29/2020 06:21:14 -75.80, 142.97 59.82 1.94 24
4 12/29/2020 07:10:43 76.80, -46.08 119.05 12/29/2020 07:11:36 76.80, -46.15 119.01 1.74 53
5 12/31/2020 21:49:56 71.79, 82.24 124.15 12/31/2020 21:48:42 71.89, 81.82 124.28 18.60 74
6 12/31/2020 22:37:57 -76.26, -99.70 60.47 12/31/2020 22:37:59 -76.25, -99.74 60.46 1.36 2
7 12/31/2020 23:23:17 81.02, 147.80 106.19 12/31/2020 23:24:30 80.37, 145.94 105.87 78.98 73
8 01/03/2021 14:05:11 75.63,-153.36 120.05 01/03/2021 14:04:22 75.63,-153.35 120.09 0.07 49
9 01/03/2021 14:54:18 -76.64, 17.47 61.07 01/03/2021 14:54:46 -76.64, 17.47 61.10 0.12 28
10 01/06/2021 06:21:29 76.16, -35.87 119.24 01/06/2021 06:21:06 76.17, -35.79 119.24 2.15 23
11 01/06/2021 07:10:38 -77.06, 134.86 61.78 01/06/2021 07:11:32 -77.07, 134.94 61.85 2.15 54
12 01/08/2021 21:48:54 -75.11, -90.70 59.89 01/08/2021 21:47:41 -75.10, -90.76 59.80 1.85 73
13 01/08/2021 22:37:54 76.34, 80.59 118.76 01/08/2021 22:37:58 76.34, 80.56 118.77 0.86 4



Historial Predications of SNOs between AQUA and NPP
